TIANWANG 1B (TW-1B)
1 40927U 15051C   19151.39142652  .00010613  00000-0  16643-3 0  9997
2 40927  97.1399 196.9953 0010482  92.3272  31.0715 15.53810305207179
TIANWANG 1A (TW-1A)
1 40928U 15051D   19151.37944787  .00002929  00000-0  73663-4 0  9992
2 40928  97.1478 183.0900 0012509 133.6213 351.8225 15.40663954206353
LAPAN A2
1 40931U 15052B   19148.74838342  .00000586  00000-0 -81216-5 0  9995
2 40931   5.9975 206.1759 0018637 224.2731 135.6745 14.76604099198162
LQSAT
1 40958U 15057A   19150.81621834 -.00000092  00000-0 -65575-5 0  9999
2 40958  97.8988 220.5192 0016962 304.5884  55.3718 14.73078544196024
CHUBUSAT 2
1 41338U 16012B   19151.46023615  .00000262  00000-0  13637-4 0  9997
2 41338  31.0029 260.6335 0013946 282.8143  77.0934 15.00145905180179
CHUBUSAT 3
1 41339U 16012C   19151.49839453  .00000254  00000-0  12914-4 0  9994
2 41339  31.0101 258.5086 0013746 291.2484  68.6686 15.00321996180176
OUFTI-1
1 41458U 16025C   19151.18201145  .00001707  00000-0  90006-4 0  9999
2 41458  98.1012 237.0846 0167835  59.6566 302.1137 15.05768973169792
E-STAR-2
1 41459U 16025D   19151.45994670  .00001100  00000-0  59969-4 0  9992
2 41459  98.0993 237.0485 0168972  59.9077 301.8789 15.05409126169805
AAUSAT 4
1 41460U 16025E   19151.19269007  .00001712  00000-0  89138-4 0  9994
2 41460  98.0944 237.9624 0158978  53.6613 307.9302 15.07273838169886
NUSAT 1
1 41557U 16033B   19151.50140322  .00000981  00000-0  39561-4 0  9995
2 41557  97.4175 239.1074 0013953   9.5349 350.6152 15.27166762167317
BEESAT 4
1 41619U 16040W   19151.38244900  .00001182  00000-0  53017-4 0  9991
2 41619  97.3686 213.9462 0013161  88.9025 271.3719 15.23074775151078
PRATHAM
1 41783U 16059A   19151.20154096  .00000023  00000-0  13689-4 0  9994
2 41783  98.0687 211.1902 0034958  82.7637 277.7537 14.62992607142844
ALSAT 1N
1 41789U 16059G   19151.41096688  .00000031  00000-0  14844-4 0  9998
2 41789  98.0709 213.3485 0029632  71.6291 288.8128 14.64240656142976
NAYIF 1
1 42017U 17008BX  19151.39659480  .00001227  00000-0  51326-4 0  9994
2 42017  97.4039 218.6782 0005014 221.1587 138.9273 15.25471386127137
MAX VALIER SAT
1 42778U 17036P   19150.92265439 +.00000708 +00000-0 +34037-4 0  9997
2 42778 097.3557 209.0012 0010690 293.5209 066.4904 15.21977714107388
